Theta_e
318 316 313 309 305 301 299 297 295 294 294 294 294 294 293 291 291 290 290 289 290 291
306 305 302 299 298 296 295 293 292 291 291 291 291 291 290 288 288 288 288 288 288 288
298 297 296 296 294 292 291 290 290 289 289 289 289 288 288 287 287 287 287 287 286 286
293 294 293 291 290 290 289 289 288 288 287 287 287 287 286 286 285 285 285 285 284 284
291 291 290 289 288 288 287 287 286 286 286 286 286 285 285 284 284 283 283 283 283 282
288 288 287 287 286 286 285 285 285 285 284 284 284 284 284 284 283 283 282 282 282 282
287 287 286 286 285 285 285 284 284 283 283 283 283 284 284 284 283 282 282 283 283 284
285 285 284 284 284 283 283 283 283 282 282 282 283 284 283 284 283 283 282 283 284 284
284 284 283 283 282 282 282 282 282 282 282 281 283 288 287 285 283 282 282 282 283 284
283 283 283 282 282 282 281 282 281 281 281 280 282 287 286 286 283 282 282 282 283 283
282 282 281 281 281 281 281 281 280 281 281 281 282 286 286 287 283 282 282 282 282 283
282 281 281 280 280 280 280 278 278 280 279 279 280 284 286 286 282 282 282 282 282 283
282 282 281 280 279 279 278 279 280 280 279 277 275 281 285 286 280 275 279 280 282 283
281 281 280 279 278 277 277 278 277 277 276 276 275 276 284 285 281 279 276 276 277 280
Wind_Speed
10 8 7 8 7 5 5 4 5 6 6 6 7 6 6 5 4 6 5 7 5 3
9 12 10 10 8 7 7 6 7 7 7 6 7 7 6 5 6 5 5 5 5 4
9 12 11 11 9 8 7 6 7 6 6 7 7 7 6 5 5 6 4 4 5 4
9 12 10 11 8 8 7 7 7 6 6 7 6 6 6 6 6 6 5 5 5 5
11 11 11 10 8 7 8 6 7 7 7 7 6 6 6 6 5 4 4 3 4 5
10 10 10 9 8 7 7 7 6 6 7 6 6 6 5 5 4 4 5 5 5 4
9 10 9 8 7 7 6 7 6 6 6 6 6 5 5 5 5 4 4 5 4 5
8 8 8 8 7 7 6 5 6 6 5 5 5 4 5 4 4 4 5 5 3 4
9 9 8 8 7 7 6 6 6 6 6 5 3 8 7 5 4 3 2 2 2 3
9 9 8 7 7 6 6 5 5 5 5 5 5 8 6 4 3 2 0 2 3 3
9 9 8 7 7 6 4 5 4 5 5 5 3 3 3 3 3 2 3 4 5 4
10 10 9 8 7 4 4 3 3 3 4 3 0 1 3 3 3 4 4 4 5 5
9 10 10 8 7 3 3 4 3 3 3 2 0 3 3 5 1 2 3 5 5 7
8 9 8 7 3 4 4 5 3 4 3 2 1 3 3 3 2 3 3 3 3 3
Wind_Direction
142 127 121 126 126 111 109 112 115 91 76 75 72 74 73 67 61 64 58 50 44 40
128 122 129 106 108 117 121 113 86 84 87 76 74 68 69 64 60 56 56 48 38 32
128 118 115 119 124 117 108 102 101 95 88 79 74 71 74 70 56 64 42 42 38 27
118 113 114 114 120 117 110 111 110 110 99 92 90 82 78 70 55 60 50 31 36 27
116 117 116 117 119 119 120 113 122 120 109 100 93 86 84 83 71 66 57 37 36 26
121 122 121 124 121 116 121 124 120 109 106 109 103 99 92 97 85 61 48 32 30 17
134 129 125 124 119 119 121 119 114 113 117 113 111 111 104 87 77 62 50 36 37 15
123 115 117 119 125 125 118 124 127 119 106 117 121 120 102 82 67 60 54 31 15 349
135 137 139 133 132 128 137 142 136 136 138 130 128 109 96 91 87 76 80 16 322 326
145 143 145 135 130 147 159 143 139 142 137 122 137 132 115 98 102 98 127 272 289 290
154 148 144 141 149 154 152 144 139 136 126 121 133 153 163 136 154 231 261 267 269 301
161 152 151 155 158 145 133 133 158 133 115 128 126 291 243 221 202 216 238 260 263 271
160 155 159 154 154 133 126 137 129 115 110 116 315 336 271 244 186 241 246 242 235 259
151 153 148 139 125 133 129 123 136 116 80 72 84 309 293 281 175 235 244 250 252 243